Location: Mercenac
(43.0398°N, 1.0771°E)
Time: 23:18:43
(UTC+00:00)

Daily predictions for brighter satellites

Satellite Brightness Start Highest point End
(mag) Time Altitude Azimuth Time Altitude Azimuth Time Altitude Azimuth
USA 81 4.4 16:47:36 10° S 16:52:51 75° W 16:58:08 10° N
CZ-2C R/B 4.0 16:51:32 10° NE 16:54:56 17° E 16:58:19 10° SE
USA 267 4.0 16:49:22 10° NE 16:55:28 43° NNW 17:01:34 10° W
Spot 1 4.4 16:52:22 10° NNE 16:56:53 82° WNW 17:01:39 10° SSW
Cosmos 1503 Rocket 4.3 16:53:54 10° NNW 16:59:18 77° WSW 17:04:39 10° SSE
Cosmos 1271 Rocket 2.8 16:55:36 10° S 16:59:23 56° E 17:03:15 10° NNE
USA 306 2.9 16:55:13 10° SW 16:59:29 88° SE 17:03:44 10° NE
Lacrosse 5 rocket 3.3 16:57:37 10° WNW 16:59:58 16° NNW 17:02:24 10° NNE
SMAP 3.1 17:00:04 10° SSE 17:04:38 58° ENE 17:09:12 10° N
ATLAS 2AS CENTAUR R/B 4.1 16:59:15 10° WSW 17:06:26 38° NW 17:13:26 10° NNE
CZ-4B DEB 4.4 17:02:38 10° SE 17:07:58 51° ENE 17:13:17 10° N
Cosmos 1408 Rocket 4.2 17:05:17 10° N 17:09:13 33° ENE 17:13:08 10° SE
Meteor 2-2 Rocket 4.5 17:03:42 10° S 17:09:33 57° E 17:15:27 10° NNE
NOAA 12 4.3 17:06:33 10° S 17:11:53 80° WSW 17:17:14 10° NNW
Cosmos 1697 Rocket 4.3 17:08:50 10° N 17:11:53 15° NE 17:14:22 11° ENE
H-2A R/B 2.6 17:07:37 10° SE 17:12:25 37° ENE 17:17:08 10° N
Cosmos 1513 Rocket 4.4 17:08:19 10° S 17:14:18 68° E 17:20:25 10° NNE
USA 307 3.0 17:10:17 10° SW 17:14:34 80° NW 17:18:33 12° NE
Cosmos 44 4.5 17:14:20 10° N 17:18:05 22° NE 17:20:56 13° E
ATLAS CENTAUR R/B 1.8 17:15:05 10° SW 17:19:04 64° NW 17:23:25 10° NNE
Cosmos 2034 Rocket 4.2 17:13:59 10° SSE 17:19:49 46° E 17:25:39 10° NNE
Cosmos 1777 Rocket 4.0 17:15:05 10° NNW 17:20:23 76° ENE 17:25:39 10° SSE
Cosmos 1939 Rocket 3.0 17:17:56 10° SSE 17:22:04 85° WSW 17:26:13 10° NNW
Lacrosse 5 1.8 17:18:13 10° NW 17:23:21 73° NE 17:28:27 10° SE
SKYMED 2 4.4 17:23:31 10° NE 17:27:22 30° E 17:31:11 10° SSE
USA 234 4.2 17:22:10 10° SSE 17:28:29 51° SW 17:34:49 10° WNW
NOSS 2-1 (C) 3.6 17:25:57 10° SW 17:29:12 49° NW 17:32:11 11° NNE
NOSS 3-1 (C) 4.3 17:22:53 10° NNW 17:29:58 47° NE 17:38:13 10° ESE
Okean 3 Rocket 3.8 17:25:47 10° NNW 17:30:19 76° W 17:34:47 10° S
Cosmos 1656 4.2 17:26:45 10° N 17:31:46 34° ENE 17:36:47 10° ESE
MOS 1-B Rocket 4.2 17:26:55 10° NNE 17:32:27 50° E 17:38:32 10° S
CZ-2D R/B 3.2 17:29:52 10° SSE 17:33:39 58° ENE 17:37:27 10° N
GEOS 3 Rocket 3.8 17:29:19 10° ESE 17:34:22 49° NE 17:39:23 10° NNW
Cosmos 1862 4.0 17:31:34 10° NNW 17:35:29 58° W 17:39:24 10° S
PSLV R/B 3.5 17:31:54 10° SSE 17:35:35 75° ENE 17:39:16 10° N
Cosmos 1461 4.2 17:31:41 10° WSW 17:35:36 36° NW 17:39:27 10° NNE
MOS 1-B 4.3 17:30:03 10° SSE 17:35:43 64° ENE 17:41:27 10° N
USA 308 3.3 17:32:31 10° WSW 17:36:42 56° NNW 17:39:45 18° NE
NOSS 2-1 (D) 4.0 17:35:21 10° WSW 17:38:28 39° NW 17:41:11 13° NNE
Cosmos 1500 Rocket 3.9 17:38:32 10° N 17:42:48 43° ENE 17:47:01 10° SSE
ATLAS 5 CENTAUR R/B 4.5 17:39:23 10° WNW 17:44:28 30° WSW 17:50:15 10° S
ATLAS 3B R/B 4.4 17:38:24 10° NW 17:45:02 39° WSW 17:51:52 10° S
SJ 16-02 1.4 17:40:46 10° NNW 17:45:10 83° WSW 17:49:32 10° SSE
BREEZE-M DEB (TANK) 4.2 17:37:12 10° WNW 17:46:56 76° SW 17:49:49 14° SE
Cosmos 1634 Rocket 4.5 17:42:38 10° SSE 17:48:18 37° E 17:54:02 10° NNE
Cosmos 1842 Rocket 3.6 17:46:40 10° S 17:51:06 83° W 17:55:35 10° N
CZ-4B R/B 3.1 17:47:31 10° SSE 17:52:58 66° ENE 17:58:20 10° N
Cosmos 1805 Rocket 4.2 17:49:10 10° N 17:53:06 32° ENE 17:56:58 10° SE
CZ-4C R/B 4.2 17:49:25 10° NNW 17:54:13 20° NNE 17:56:09 18° NE
TIMED 4.4 17:52:40 10° S 17:57:00 71° ESE 17:59:55 20° NNE
Cosmos 1833 Rocket 3.3 17:52:06 10° SSE 17:57:03 33° ESE 17:58:47 28° ENE
ATLAS 5 CENTAUR R/B 4.0 17:50:58 10° NW 17:57:19 20° N 17:58:53 17° NNE
Cosmos 540 Rocket 4.4 17:58:39 10° SSE 18:02:29 27° ESE 18:02:29 27° ESE
Cosmos 1606 4.3 18:02:02 10° SW 18:05:28 35° WNW 18:08:58 10° N
USA 305 4.1 18:03:58 10° W 18:07:50 34° NNW 18:09:32 24° NNE
Meteor 1-25 Rocket 4.1 18:03:19 10° N 18:08:51 64° ENE 18:14:22 10° SSE
Cosmos 2026 Rocket 4.0 18:03:37 10° N 18:09:42 55° ENE 18:15:39 10° SSE
USA 276 3.8 18:08:21 10° NW 18:10:26 22° N 18:10:26 22° N
Cosmos 2195 Rocket 4.4 18:04:54 10° N 18:11:01 67° E 18:17:08 10° SSE
Okean O Rocket 1.5 18:07:22 10° SSE 18:11:48 78° ENE 18:16:16 10° N
ARGOS 3.0 18:07:30 10° SSE 18:12:54 76° ENE 18:18:20 10° N
COSMO-SKYMED 1 2.6 18:11:30 12° N 18:15:34 81° WNW 18:19:53 10° SSW
ATLAS CENTAUR R/B 3.0 18:06:34 10° SW 18:17:19 77° SE 18:19:17 40° ENE
CZ-4C R/B 4.5 18:20:21 24° S 18:20:21 24° S 18:21:47 10° S
ERBS 3.0 18:16:34 10° WSW 18:19:38 41° NW 18:19:49 41° NNW
Cosmos 1782 3.8 18:16:30 10° SSE 18:18:52 31° SSE 18:18:52 31° SSE
Cosmos 1937 Rocket 4.2 18:17:05 10° N 18:21:06 35° NE 18:21:06 35° NE
Cosmos 2221 4.4 18:21:45 10° SW 18:25:29 29° WNW 18:29:15 10° NNW
Cosmos 1763 Rocket 3.3 18:21:49 10° SSW 18:26:52 80° ESE 18:28:44 39° NNE
ISS -1.5 18:25:56 10° NW 18:27:49 18° NNW 18:27:49 18° NNW
Cosmos 1933 3.4 18:28:16 10° SSW 18:32:19 74° W 18:33:24 47° N
deb Chang Zheng 4 4.4 18:28:20 10° S 18:32:30 49° W 18:36:42 10° NNW
YAOGAN 1 4.4 18:35:37 19° N 18:35:37 19° N 18:36:55 10° N
Cosmos 1340 Rocket 3.8 18:29:24 10° NNW 18:33:18 47° W 18:37:12 10° S
CZ-2C R/B 3.0 18:30:30 10° N 18:35:40 60° WNW 18:40:45 10° SSW
Feng Yun 1-1 Rocket 4.3 18:32:03 10° SSE 18:37:57 84° ENE 18:43:55 10° NNW
IRAS Rocket 4.3 18:38:23 54° ESE 18:38:23 54° ESE 18:43:23 10° S
Meteor 2-21 4.3 18:32:32 10° N 18:38:41 82° E 18:44:44 10° S
USA 306 4.4 18:36:11 10° WNW 18:39:46 26° NNW 18:40:01 26° NNW
Lacrosse 5 rocket 3.9 18:39:27 10° NNW 18:39:29 10° NNW 18:39:29 10° NNW
Landsat 5 4.0 18:38:53 30° N 18:40:48 57° WNW 18:44:49 10° SSW
Cosmos 990 Rocket 4.0 18:37:19 10° NNW 18:42:33 79° WSW 18:46:44 16° SSE
H-2A R/B 4.0 18:47:17 10° SSW 18:51:52 29° W 18:56:22 10° NW
USA 229 DEB 3.8 18:45:39 10° NNW 18:53:02 72° NE 18:54:57 53° ESE
USA 229 3.8 18:45:45 10° NNW 18:53:07 71° NE 18:54:59 53° ESE
COSMOS 2455 3.6 18:50:49 10° S 18:54:37 36° SSE 18:54:37 36° SSE
Cosmos 1697 Rocket 2.7 18:51:10 10° NNW 18:56:11 68° N 18:56:11 68° N
Cosmos 1980 Rocket 3.6 18:51:58 10° NNW 18:54:30 25° N 18:54:30 25° N
COSMOS 2406 3.1 18:51:43 10° SSW 18:57:17 80° SE 18:57:17 80° SE
Meteor 1-26 Rocket 4.5 18:52:56 10° SSW 18:58:46 73° W 19:02:35 24° N
ATLAS CENTAUR R/B 4.1 18:57:14 10° NW 18:58:54 12° NNW 19:00:03 11° NNW
Cosmos 44 3.6 18:55:02 10° NW 18:59:26 58° W 18:59:26 58° W
Cosmos 2082 Rocket 3.5 18:55:40 10° S 18:58:13 26° S 18:58:13 26° S
Cosmos 2142 Rocket 4.3 18:56:35 10° S 19:02:42 89° W 19:04:23 51° N
Lacrosse 5 4.2 19:02:08 10° WNW 19:05:50 20° WSW 19:09:31 10° SSW
Cosmos 1898 Rocket 3.9 19:06:24 10° NNW 19:11:36 60° WSW 19:11:39 60° WSW
NOSS 3-1 (A) 4.1 19:08:43 10° NW 19:16:24 83° SW 19:19:12 48° SSE
Cosmos 2279 Rocket 4.3 19:21:05 10° SSW 19:27:14 62° W 19:28:11 55° NW
Cosmos 1833 Rocket 3.9 19:35:43 10° SW 19:40:32 37° WNW 19:40:32 37° WNW
CZ-4C R/B 3.8 19:37:14 10° NNW 19:41:21 36° N 19:41:21 36° N
